This is the latest recevied weather packets stored in our database for station/object N6RDS-8. If no packets are shown the sender has not sent any weather packets the latest 10 day(s).
| Time | Temp. | Humidity | Pressure | Rain* | Wind** | Luminosity | Snow |
|---|---|---|---|---|---|---|---|
| 1777766132 | 25.56° C | 33% | 1017.6 hPa | 0 mm | - | 146 W/m² | - |
| 1777765830 | 25.56° C | 33% | 1017.8 hPa | 0 mm | - | 213 W/m² | - |
| 1777765525 | 25.56° C | 32% | 1017.8 hPa | 0 mm | - | 253 W/m² | - |
| 1777765223 | 25.56° C | 33% | 1017.8 hPa | 0 mm | - | 165 W/m² | - |
| 1777764924 | 25° C | 33% | 1017.9 hPa | 0 mm | - | 129 W/m² | - |
| 1777764621 | 25.56° C | 33% | 1017.7 hPa | 0 mm | - | 89 W/m² | - |
| 1777764317 | 25.56° C | 33% | 1017.8 hPa | 0 mm | - | 184 W/m² | - |
| 1777764014 | 25.56° C | 33% | 1017.9 hPa | 0 mm | - | 165 W/m² | - |
| 1777763711 | 26.11° C | 33% | 1018 hPa | 0 mm | - | 191 W/m² | - |
| 1777763409 | 25.56° C | 33% | 1018 hPa | 0 mm | - | 191 W/m² | - |
| 1777763107 | 25.56° C | 33% | 1018 hPa | 0 mm | - | 128 W/m² | - |
| 1777762805 | 25.56° C | 33% | 1018.1 hPa | 0 mm | - | 97 W/m² | - |
| 1777762500 | 25.56° C | 33% | 1017.9 hPa | 0 mm | - | 86 W/m² | - |
| 1777762198 | 25.56° C | 33% | 1018 hPa | 0 mm | - | 108 W/m² | - |
| 1777761894 | 25.56° C | 33% | 1018 hPa | 0 mm | - | 144 W/m² | - |
| 1777761591 | 26.67° C | 32% | 1017.8 hPa | 0 mm | - | 167 W/m² | - |
| 1777761289 | 26.67° C | 32% | 1017.9 hPa | 0 mm | - | 626 W/m² | - |
| 1777760987 | 26.67° C | 33% | 1018 hPa | 0 mm | - | 617 W/m² | - |
| 1777760684 | 26.11° C | 31% | 1018 hPa | 0 mm | - | 645 W/m² | - |
| 1777760379 | 26.11° C | 32% | 1018.1 hPa | 0 mm | - | 190 W/m² | - |
| 1777760076 | 26.67° C | 31% | 1018.2 hPa | 0 mm | - | 177 W/m² | - |
| 1777759773 | 28.33° C | 28% | 1018.5 hPa | 0 mm | - | 319 W/m² | - |
| 1777759469 | 27.78° C | 29% | 1018.6 hPa | 0 mm | - | 557 W/m² | - |
| 1777759166 | 26.67° C | 30% | 1018.5 hPa | 0 mm | - | 747 W/m² | - |
| 1777758863 | 26.67° C | 30% | 1018.8 hPa | 0 mm | - | 508 W/m² | - |
* Rain latest hour (hover to see other rain measurements)
** Current wind speed in m/s (hover to see current wind gust speed)